Find Starlink 34030

NORAD ID: 64030 Int'l Des: 2025-102 Owner: SPXS Country: US Constellation: starlink operational
LEOCIRCULAR

Live Position

Loading 3D Globe...

About Starlink 34030

Description loading...

Upcoming Passes

Passes for default location (London). Set your location on the main map for personalized predictions.

Altitude History

Loading altitude history...

Two-Line Element Set

1 64030U 25102J 26104.50774692 .00000946 00000-0 87053-4 0 9992
2 64030 70.0024 24.2949 0002603 270.7531 89.3330 14.98335570 51326
Epoch: Apr 14, 2026 • Age: 8 hours

Current Status

Altitude 581.0 km
Velocity 7.57 km/s
Sub-Earth Point -27.85°S, 131.54°W
Launch Date May 16, 2025
Age 0.9 years
Type internet

Technical Details

Classification Payload
Mass 575.00 kg
Dry Mass 530.00 kg
Total Mass 575.00 kg
Length 0.30 m
Diameter 4.10 m
Span 29.00 m
Shape Box + pan
Manufacturer SPXS
Bus Type Starlink V2MO
Phase Status In Orbit
Owner/State SPXS/US

Most Searched